Location: F M Corners
(41.2198°N, 80.4709°W)
Time: 17:20:10
(UTC+00:00)

SKYMED 2 - Pass Details

Date: 29 October 2020
Orbit: 621 x 623 km, 97.9° (Epoch: 28 November)

Event Time Altitude Azimuth Distance (km) Brightness Sun altitude
Rises 22:43:14 0° 24° (NNE) 2,910 6.6 -5.0°
Reaches altitude 10° 22:45:43 10° 36° (NE) 1,998 5.7 -5.4°
Maximum altitude 22:49:27 28° 96° (E) 1,183 4.5 -6.1°
Drops below altitude 10° 22:53:09 10° 155° (SSE) 1,984 6.0 -6.8°
Sets 22:55:35 0° 167° (SSE) 2,885 7.0 -7.2°
